GFSSGP_prec_cloud_120.txt.gz
Cloud_Cover
0 0 1 67 100 100 100 22 0 0 1 0 0 0 0 0 3 5 0 0 5 20 19 3 0 0 0 0 0 0 0 0 0 0 0 0 0 0 0 0 0 0 0 0 0 0 10 0 0
0 0 0 85 100 100 99 19 2 11 86 7 5 1 0 0 0 1 3 0 0 6 13 5 8 20 0 0 0 0 0 0 0 0 0 0 0 0 0 0 0 0 0 0 27 43 6 0 0
2 0 0 9 30 55 2 31 100 100 97 82 5 34 5 3 4 1 5 5 5 1 4 1 5 12 4 0 0 0 0 0 0 0 0 0 0 0 0 0 0 0 0 0 0 29 0 0 0
3 0 0 6 21 0 5 5 12 69 99 90 22 42 1 6 90 83 5 4 4 0 0 2 5 5 21 5 0 0 0 0 0 0 0 0 0 0 0 0 0 0 0 0 0 0 0 0 0
0 5 1 6 5 8 2 38 98 33 40 94 5 5 3 2 41 80 28 0 0 0 0 8 4 5 23 92 28 5 3 0 0 0 0 0 0 0 0 0 0 0 0 0 0 0 0 0 0
1 0 6 2 3 32 13 1 2 28 50 28 5 0 0 0 0 5 16 5 3 1 0 0 1 1 9 5 66 8 5 5 5 4 1 0 0 0 0 0 0 0 0 0 0 0 0 0 0
5 5 4 3 5 4 2 4 1 0 0 0 0 0 0 0 35 98 68 5 8 13 4 0 15 5 0 6 41 96 82 5 5 5 5 5 0 4 0 0 0 0 5 3 0 0 0 0 0
90 28 63 14 7 6 4 0 3 4 0 0 1 5 5 90 96 0 2 2 5 5 5 1 17 24 24 21 68 100 100 8 5 5 5 5 5 5 5 5 2 0 5 2 0 0 0 0 0
5 5 90 89 97 99 17 0 0 4 5 0 0 0 0 1 4 0 0 1 5 5 49 68 17 21 30 34 12 48 100 100 25 18 36 95 42 14 72 11 8 5 5 4 0 0 0 2 0
19 5 5 5 38 26 0 0 2 5 2 5 5 0 0 29 45 46 1 35 49 14 26 98 24 25 23 93 100 100 100 62 49 76 95 97 100 96 99 58 42 10 5 0 0 0 1 7 31
6 5 5 5 77 99 8 0 5 5 40 10 5 4 3 5 37 100 100 100 99 70 59 10 29 58 91 100 82 86 100 100 100 100 100 100 100 100 100 96 69 35 13 31 32 40 38 41 37
5 5 6 98 100 100 99 88 19 23 100 72 72 100 98 1 5 19 29 12 23 68 90 100 19 84 78 93 100 91 99 100 100 100 100 100 100 100 100 100 100 100 88 69 41 73 87 63 45
5 5 8 100 100 11 23 100 100 100 70 36 4 3 4 5 2 2 5 5 5 20 18 52 75 64 93 100 80 90 52 75 100 100 100 100 100 100 100 100 100 100 100 100 100 99 100 100 97
5 5 5 5 5 82 94 100 100 100 100 86 92 100 17 2 0 0 0 4 5 3 8 18 95 100 100 100 82 100 100 99 100 89 100 100 100 100 100 100 100 100 100 100 100 100 100 100 100
3 3 5 37 5 99 100 100 100 100 100 100 100 75 5 5 3 0 0 0 0 0 0 1 57 66 57 62 45 13 23 100 100 100 100 100 100 100 100 100 100 100 100 100 100 100 100 100 100
34 5 8 72 100 100 100 100 100 100 100 100 89 90 95 76 5 5 5 1 0 0 0 25 94 49 6 0 8 100 100 92 34 48 100 100 100 100 100 100 100 100 97 86 99 100 100 100 100
5 5 57 100 100 100 37 90 100 100 94 57 33 10 14 5 96 100 72 5 5 3 0 29 96 67 0 0 0 16 91 100 98 22 100 100 92 93 100 94 93 100 100 100 100 100 100 100 100
5 5 41 62 77 5 94 100 43 71 95 100 99 89 37 8 4 3 1 0 0 0 0 0 34 22 0 0 0 0 2 35 100 100 11 98 94 53 19 5 17 76 53 90 100 100 100 100 100
5 5 5 6 23 26 100 100 87 6 5 5 5 5 5 1 8 0 0 0 0 0 0 0 6 24 0 5 4 5 5 4 99 87 100 30 7 5 28 51 5 5 14 5 91 100 100 100 100
5 4 37 95 100 86 100 100 99 70 18 5 5 4 0 25 21 37 47 37 20 2 0 0 0 5 3 73 100 64 69 13 10 47 100 99 22 5 5 49 39 22 32 4 0 29 100 100 100
19 14 5 5 19 16 10 94 29 32 5 5 30 62 74 80 63 85 100 100 90 89 76 88 68 17 100 100 100 100 66 81 73 61 89 100 88 99 76 16 78 93 98 90 29 12 36 100 100
99 99 60 27 5 13 14 53 5 5 5 51 100 100 100 100 100 100 94 100 100 100 100 100 100 73 100 97 100 100 47 97 100 91 54 58 100 95 99 100 100 100 100 100 100 84 14 26 89
84 100 96 14 41 75 35 33 5 11 94 100 100 100 100 100 100 100 100 99 76 100 100 100 100 56 100 100 100 100 100 87 100 100 93 100 57 54 100 95 100 100 100 100 100 100 100 78 24
48 27 50 86 82 86 54 6 5 100 100 100 100 100 100 100 100 100 100 100 100 100 100 100 100 100 100 100 100 100 100 100 100 100 100 92 100 100 100 100 100 100 100 100 100 100 100 100 100
25 22 77 45 95 37 5 5 5 100 100 100 100 100 100 100 100 100 100 100 100 100 100 97 100 100 100 100 100 100 100 100 100 100 100 100 100 100 100 100 100 100 100 100 100 100 100 100 100
6 28 90 39 20 5 6 5 7 98 97 98 99 100 100 100 100 100 100 100 100 100 100 100 100 100 100 100 100 100 100 100 100 100 100 100 100 100 100 100 100 100 100 100 100 100 100 100 100
49 83 24 100 92 86 8 59 97 100 100 100 100 100 100 100 100 100 100 100 100 100 100 100 100 100 100 100 100 100 100 100 100 100 100 100 100 100 100 100 100 100 100 100 100 100 100 100 100
9 21 96 100 100 100 7 8 21 100 100 100 100 100 100 100 85 66 100 100 100 99 99 100 100 100 100 100 100 100 100 100 100 100 100 100 100 100 100 100 100 100 100 100 100 100 100 100 100
5 65 77 64 73 98 65 7 4 43 100 100 100 100 96 100 96 99 95 100 100 66 86 100 100 100 100 100 100 100 100 100 100 100 100 100 100 100 100 100 100 100 100 100 100 100 100 100 100
9 97 100 100 84 70 62 18 5 10 94 99 100 100 100 100 53 80 100 100 100 82 100 100 100 100 100 100 100 100 100 100 100 100 100 100 100 100 100 100 100 100 100 100 100 100 100 100 100

GFSSGP_prec_cloud_123.txt.gz
Cloud_Cover
5 4 70 10 5 0 0 3 21 12 8 98 49 65 46 5 5 0 0 0 0 0 0 5 0 0 4 0 0 0 0 0 0 0 0 0 0 0 0 0 0 0 0 0 0 0 0 0 0
5 7 100 94 26 0 0 0 5 64 33 82 100 100 56 5 0 0 0 0 0 0 0 0 4 1 3 5 2 0 0 0 0 0 0 0 0 0 0 0 0 0 0 0 0 4 0 0 0
5 3 7 57 5 0 0 0 0 1 14 52 28 48 41 5 0 0 0 0 0 0 0 0 0 2 5 5 5 5 2 2 0 0 0 0 0 0 0 0 0 0 0 0 0 0 0 0 0
5 2 5 3 4 5 2 4 5 1 5 50 100 99 24 6 2 0 3 2 0 0 0 39 0 0 0 5 5 14 68 5 5 0 0 0 0 0 0 0 0 0 0 0 0 0 0 0 0
5 5 5 5 5 5 4 1 0 6 28 9 5 4 2 4 2 0 0 0 0 0 0 0 1 0 0 0 3 5 13 77 61 99 50 28 3 0 0 0 0 0 0 0 2 86 0 0 0
15 7 7 5 5 5 1 4 5 5 7 6 8 10 5 0 0 0 0 0 0 0 0 0 11 0 0 0 0 5 43 46 95 14 32 87 98 25 2 0 0 0 0 0 0 0 0 0 0
42 43 5 5 4 4 5 7 5 5 5 5 5 4 0 2 2 0 0 2 12 0 0 4 0 4 23 1 39 94 12 77 100 8 5 5 61 100 53 2 2 5 5 5 0 0 0 0 0
22 49 6 5 7 6 5 5 5 4 3 94 96 5 5 5 4 15 47 76 22 0 0 0 5 23 15 6 7 38 8 5 19 39 40 5 6 8 98 70 5 5 5 5 5 4 0 0 0
5 5 15 5 5 5 5 5 5 3 2 5 5 5 5 5 3 4 74 48 79 22 0 0 0 0 11 18 6 40 12 5 12 35 100 80 37 5 43 87 100 35 37 26 6 4 0 0 9
5 29 6 25 10 26 5 5 5 4 4 4 5 5 5 3 5 5 79 46 100 100 62 5 12 12 70 76 100 100 40 99 87 69 100 100 96 94 40 70 100 88 99 69 41 5 3 53 26
38 47 27 74 9 5 5 5 5 75 3 5 5 12 24 5 5 5 42 86 86 100 100 100 100 28 21 11 19 77 89 86 92 94 100 100 100 100 100 97 64 36 19 18 43 50 47 56 45
47 17 34 6 5 5 5 52 5 71 90 82 5 1 4 5 95 100 100 100 92 92 99 81 80 43 21 18 37 76 68 100 100 92 100 100 100 100 100 100 100 100 100 100 100 87 52 55 81
5 65 91 60 5 5 50 98 10 18 4 5 4 2 4 34 59 57 90 90 85 93 37 5 5 31 36 46 77 80 87 100 100 100 100 100 100 100 100 100 100 100 100 100 100 53 80 100 100
15 9 10 34 5 5 80 100 100 97 71 81 55 30 3 65 9 5 5 68 93 91 58 24 53 100 100 99 74 79 77 91 100 100 100 100 100 100 100 100 100 100 100 100 64 100 100 100 100
96 22 15 60 9 5 5 67 100 100 100 100 100 100 93 74 97 100 100 6 2 4 6 11 100 37 100 100 77 84 27 100 100 97 100 100 100 98 84 68 100 100 93 100 100 100 100 100 100
29 12 74 18 5 3 5 18 100 100 100 100 100 100 100 100 100 94 16 5 5 20 28 52 100 98 100 100 100 98 86 88 94 96 100 100 100 100 100 100 100 100 100 100 85 96 100 100 100
52 94 85 100 80 5 5 5 100 100 67 100 100 100 100 100 100 100 100 38 15 40 97 100 100 100 100 100 100 62 36 2 7 5 1 4 1 2 4 22 63 100 100 100 100 99 100 100 100
54 15 60 35 8 5 22 5 45 99 99 100 100 72 99 100 100 100 100 64 13 51 100 100 100 100 100 100 97 51 22 0 0 0 0 0 0 0 0 4 5 34 20 100 100 100 100 100 100
5 5 5 21 5 5 5 5 5 5 32 85 100 100 100 100 100 100 100 97 66 32 48 92 100 100 100 100 73 6 0 0 0 0 0 0 0 2 5 5 5 5 62 95 5 95 100 100 100
6 5 12 29 7 5 5 5 5 100 100 100 100 100 100 100 100 96 64 75 40 13 41 100 100 100 100 100 94 42 30 30 8 5 4 5 43 50 28 50 61 84 51 63 32 4 6 99 95
6 17 5 5 5 5 5 5 43 71 86 100 100 100 100 100 100 100 100 95 85 98 95 99 100 100 100 100 100 82 10 99 86 73 5 14 54 72 83 100 100 100 100 100 100 87 34 25 100
56 6 5 5 5 5 35 5 5 5 24 91 93 100 100 100 100 100 100 100 96 63 91 56 56 100 100 100 100 66 79 63 99 100 82 59 64 97 100 100 100 100 100 100 100 100 100 100 50
100 100 46 7 32 37 70 30 31 12 10 96 100 100 94 99 100 92 100 81 100 100 62 11 100 49 97 100 99 88 41 87 100 100 100 100 98 100 100 100 100 100 100 100 100 100 100 100 100
82 94 91 43 13 39 12 5 12 37 18 100 90 90 73 97 100 100 100 100 100 100 100 100 84 96 59 88 97 74 99 100 100 100 100 100 100 100 100 100 100 100 100 100 100 100 100 100 100
70 59 50 40 83 9 5 10 6 36 84 35 49 90 100 100 100 100 100 100 100 96 78 96 92 100 100 100 100 100 100 100 100 100 100 100 100 100 100 100 100 100 100 100 100 100 100 100 100
64 5 43 7 27 5 5 5 5 58 100 67 57 60 99 100 100 100 91 77 78 84 84 75 100 95 100 99 100 100 100 100 100 100 100 100 100 100 100 100 100 100 100 100 100 100 100 100 100
62 91 8 27 78 84 23 4 65 89 100 80 86 94 100 100 100 100 100 100 100 96 100 100 100 100 100 100 100 100 100 100 100 100 100 100 100 100 100 100 100 100 100 100 100 100 100 100 100
88 10 58 85 69 99 5 1 0 100 100 100 100 100 100 100 100 100 79 91 100 89 100 100 100 100 100 100 100 100 100 100 100 100 100 100 100 100 100 100 100 100 100 100 100 100 100 100 100
67 43 67 75 97 66 55 1 0 2 12 100 100 100 100 95 82 42 49 56 87 77 100 100 100 100 100 100 100 100 100 100 100 100 100 100 100 100 100 100 100 100 100 100 100 100 100 100 100
62 18 45 100 92 99 100 4 0 5 3 98 100 100 100 100 32 5 15 48 100 100 100 100 100 100 100 100 100 100 100 100 100 100 100 100 100 100 100 100 100 100 100 100 100 100 100 100 100

GFSSGP_prec_cloud_126.txt.gz
Cloud_Cover
0 0 0 0 0 0 3 7 5 0 0 0 36 96 34 38 91 100 17 0 0 0 0 1 0 0 0 0 0 3 5 5 0 0 0 0 0 0 0 0 0 0 0 0 0 0 0 0 0
4 5 0 1 0 1 36 1 3 5 0 0 0 0 14 30 88 24 0 0 0 0 0 0 17 0 0 0 1 5 5 46 49 4 0 0 0 0 0 0 0 0 0 0 0 0 0 0 0
5 9 30 5 3 5 0 4 5 1 0 0 0 0 0 5 4 6 6 5 0 0 0 0 0 0 0 0 2 5 18 68 100 93 5 2 0 0 0 0 0 0 0 0 2 0 0 0 0
5 23 24 5 5 5 5 5 5 2 0 0 0 0 6 40 70 81 24 5 4 0 0 43 0 0 0 0 0 0 6 34 96 100 100 58 5 0 0 0 0 0 0 0 0 0 0 0 0
5 10 21 99 33 5 5 7 6 12 4 0 0 0 4 0 5 5 5 5 0 0 0 0 0 0 0 0 0 0 0 0 28 99 100 100 29 2 0 0 0 0 0 0 0 0 0 0 0
5 31 29 5 5 85 34 38 60 5 5 7 5 5 5 6 83 80 41 25 0 0 0 0 10 0 0 0 0 0 5 5 5 9 54 100 100 18 5 2 5 4 1 0 0 0 0 0 0
6 10 59 35 20 5 22 16 7 35 70 18 5 5 5 4 4 26 42 3 0 0 0 0 39 5 52 8 0 0 2 5 5 5 1 41 100 100 61 5 5 18 43 17 33 5 5 4 0
5 8 35 22 50 48 9 5 5 5 73 90 5 5 5 0 0 0 0 0 0 0 0 0 0 0 0 0 5 2 3 2 2 5 0 2 5 100 100 100 96 5 5 8 98 5 5 5 5
60 44 18 5 5 5 5 5 5 5 13 68 5 5 5 5 0 0 0 4 3 1 3 4 0 0 10 9 5 53 31 4 12 25 56 68 3 16 98 100 100 100 70 6 36 40 7 92 19
100 98 12 39 8 4 4 5 5 5 5 37 5 5 5 4 2 3 33 5 5 31 10 5 5 5 33 35 5 3 24 64 96 100 92 98 59 28 28 83 100 100 100 45 100 36 91 70 11
100 100 100 61 16 5 5 5 0 4 5 5 5 5 5 5 5 6 62 99 28 88 100 95 38 11 5 5 27 49 16 34 42 80 97 98 99 90 100 56 99 31 99 49 98 100 99 89 43
100 100 100 86 52 12 5 4 1 4 4 5 5 5 9 45 100 73 48 37 100 100 100 100 100 74 66 6 5 31 5 32 37 85 78 96 76 91 81 96 97 81 100 94 98 96 72 76 86
99 100 100 100 83 38 66 18 3 2 5 9 5 5 5 47 36 85 98 97 100 100 100 100 100 100 100 100 39 65 62 20 42 53 86 29 90 80 61 90 100 100 91 90 99 84 100 100 100
99 100 100 100 100 100 100 21 5 5 16 31 13 23 5 55 22 12 19 42 89 100 100 100 100 53 45 100 100 100 98 100 100 94 97 89 77 100 99 47 67 95 82 98 100 100 39 99 100
96 100 100 100 100 100 64 5 55 6 5 67 99 35 19 97 58 55 98 44 8 55 100 100 77 88 100 100 100 100 100 100 100 100 100 100 100 100 100 87 93 75 100 61 53 100 100 100 100
18 43 100 100 100 18 5 7 86 23 6 20 98 5 9 100 100 100 100 100 100 100 100 99 73 94 75 22 100 100 100 100 100 100 100 100 100 100 100 100 100 100 95 100 97 100 100 100 100
100 100 100 94 42 5 17 26 6 7 13 5 5 16 7 5 50 74 100 100 100 100 100 100 100 93 94 100 100 100 100 100 100 100 100 100 100 100 100 98 100 100 100 100 99 100 100 100 100
82 72 8 27 7 5 5 8 47 7 16 6 5 17 37 15 61 56 99 100 100 100 100 100 100 100 60 94 100 100 100 100 100 94 46 8 4 3 0 0 1 4 11 36 50 100 100 100 100
23 66 5 5 5 5 5 5 5 8 25 37 22 5 5 12 98 100 100 100 100 100 100 100 100 100 100 93 81 100 100 100 61 1 0 0 7 36 19 5 2 0 0 10 52 62 83 96 71
36 7 10 22 5 13 5 80 91 95 66 6 5 5 38 67 100 100 100 100 100 100 100 100 95 67 99 100 99 91 100 100 93 34 2 16 34 49 62 100 96 100 69 45 29 20 94 35 96
6 7 5 5 5 6 5 6 28 28 6 5 20 18 41 7 14 25 10 25 49 64 46 12 5 5 39 55 95 99 81 67 99 100 50 26 67 100 100 100 100 100 100 100 100 100 86 43 8
5 5 5 5 11 5 6 6 10 22 90 99 100 98 44 47 22 50 22 40 64 10 31 18 5 62 5 18 28 76 8 67 19 50 27 39 73 79 93 100 100 100 100 100 100 100 100 100 94
38 5 5 5 5 5 57 12 98 18 100 87 89 23 59 91 88 86 100 100 100 74 56 64 80 68 55 82 74 55 64 60 99 20 6 54 26 79 100 100 100 100 100 100 100 100 100 100 100
100 34 8 5 5 5 5 5 26 35 10 11 5 6 63 100 100 100 99 98 99 99 91 74 91 78 91 82 83 95 91 90 62 96 48 88 100 99 96 100 100 100 100 100 100 100 100 100 100
100 100 98 5 15 2 5 5 5 45 5 5 5 6 69 99 100 89 94 98 100 99 96 84 76 72 83 97 94 99 100 96 99 80 100 100 100 98 100 100 100 100 100 100 100 100 100 100 100
100 100 100 22 5 6 5 5 5 18 5 5 5 15 97 100 86 96 90 88 86 66 82 90 73 80 83 100 100 100 100 100 100 100 100 100 100 100 100 100 100 100 100 100 100 100 100 100 100
100 100 100 100 8 35 5 3 5 5 24 10 6 80 100 100 100 100 91 89 88 70 100 100 98 100 100 100 100 100 100 100 100 100 100 100 100 100 100 100 100 100 100 100 100 100 100 100 100
100 100 100 90 52 98 12 18 26 8 55 48 42 99 100 100 99 84 45 38 96 100 100 100 100 100 100 100 100 100 100 100 100 100 100 100 100 100 100 100 100 100 100 100 100 100 100 100 100
100 100 94 50 71 100 82 17 29 5 2 11 14 99 100 99 98 76 14 16 66 97 100 100 100 100 100 100 100 100 100 100 100 100 100 100 100 100 100 100 100 100 100 100 100 100 100 100 100
100 100 93 54 36 55 15 3 2 5 5 4 5 98 90 99 70 42 5 22 53 100 100 100 100 100 100 100 100 100 100 100 100 100 100 100 100 100 100 100 100 100 100 100 100 100 100 100 100

GFSSGP_prec_cloud_129.txt.gz
Cloud_Cover
0 3 5 5 3 3 0 5 1 60 48 5 0 0 0 0 0 12 2 69 100 96 2 1 0 0 0 0 0 0 4 5 5 5 1 0 0 0 0 0 0 0 0 0 0 0 0 0 0
5 5 5 5 2 2 3 40 5 5 2 1 0 0 0 0 0 0 0 4 4 0 0 0 4 0 0 0 0 0 0 2 5 5 5 5 2 0 0 0 0 0 0 0 0 0 0 0 0
6 5 5 13 4 3 3 24 5 5 0 5 5 4 1 0 0 0 0 9 95 61 5 5 0 0 0 0 0 0 0 4 10 26 88 28 5 77 4 0 0 0 0 0 0 0 0 0 0
100 100 60 5 3 24 2 5 5 5 5 5 22 54 5 5 5 1 0 2 5 2 3 43 0 0 0 0 0 0 0 0 0 5 6 88 71 5 92 5 0 0 0 0 0 0 0 0 0
88 96 19 13 8 5 5 24 8 66 20 5 6 6 47 53 27 9 5 5 5 51 5 5 5 1 0 0 0 0 0 0 0 0 0 5 16 100 76 7 5 5 0 0 0 0 0 0 0
56 60 96 61 94 43 41 14 77 7 9 7 32 16 6 22 5 9 13 5 3 0 1 4 16 2 0 0 0 0 0 0 0 0 0 5 5 8 69 76 5 5 5 2 5 2 1 0 0
57 7 14 8 5 18 5 15 91 89 31 36 5 5 5 5 2 1 4 4 2 0 0 0 3 0 44 0 3 1 2 0 0 0 0 2 3 11 98 98 47 5 4 1 0 5 5 5 5
38 32 5 5 5 32 44 86 67 59 5 5 5 5 6 5 5 5 5 5 5 3 4 0 0 0 0 16 6 1 5 5 2 4 5 0 0 0 1 27 98 97 9 34 18 8 4 4 5
100 71 4 5 5 68 100 70 5 7 5 5 5 5 5 5 5 5 5 5 4 1 5 5 5 1 0 0 3 53 26 30 17 24 10 69 5 1 2 3 4 5 5 35 100 100 93 9 9
6 5 4 5 10 42 81 100 16 5 5 5 5 5 5 5 5 5 25 4 5 5 5 5 5 5 4 0 1 10 36 90 100 42 6 14 7 40 98 73 6 6 10 7 81 100 100 96 12
92 90 90 5 5 94 100 100 65 20 22 5 4 5 5 5 6 99 76 64 99 59 86 16 2 17 38 2 0 0 5 31 23 85 77 80 53 74 9 70 100 100 62 44 100 61 70 13 10
100 100 99 77 5 91 100 92 37 14 12 6 15 8 5 5 100 100 100 100 100 100 70 22 100 100 100 100 100 100 5 9 18 56 21 77 51 75 35 6 42 99 100 69 6 74 100 100 100
5 6 5 5 5 94 100 100 100 100 100 100 5 0 4 50 76 100 100 100 100 100 100 100 100 100 100 100 100 100 94 95 100 100 98 100 100 97 100 99 23 52 82 100 98 40 32 100 100
5 5 5 5 77 100 100 100 100 100 60 5 5 0 1 6 5 5 63 100 100 100 100 100 100 100 100 100 100 100 100 100 100 91 85 100 100 100 100 44 42 45 44 22 56 97 96 87 100
5 5 5 38 100 100 86 36 50 90 18 5 5 5 5 13 5 5 20 5 28 100 100 100 100 100 100 100 100 91 74 100 100 100 100 100 100 100 100 100 98 97 75 94 100 100 100 100 74
5 5 32 70 37 7 59 99 17 96 9 5 5 0 5 5 5 5 5 5 6 76 99 100 100 100 100 100 100 100 100 100 100 100 100 100 100 100 90 100 100 100 100 100 100 58 65 100 100
80 47 96 10 18 5 34 46 6 5 6 33 5 5 5 5 5 5 5 5 5 5 5 32 73 79 78 100 100 98 90 100 100 100 100 100 100 100 100 100 100 100 100 100 100 100 100 79 37
68 100 100 100 96 81 70 90 57 35 33 6 5 5 5 5 5 5 19 5 5 5 5 5 12 18 33 86 85 88 99 100 100 100 100 100 100 100 45 34 12 9 2 14 82 98 79 45 96
100 100 100 100 100 30 94 9 19 9 76 5 5 5 4 1 5 5 2 5 5 5 5 60 100 100 100 100 100 100 100 100 100 100 100 100 73 40 36 48 28 36 5 32 8 26 12 18 54
100 100 100 72 24 96 60 46 56 14 32 5 5 5 5 5 4 5 5 23 48 32 54 47 82 87 90 100 98 95 91 76 14 94 100 100 42 40 25 93 100 92 94 99 90 100 60 0 0
77 58 76 97 39 97 15 26 7 19 45 5 5 5 11 6 8 5 25 73 90 77 72 71 59 65 49 22 5 5 12 5 22 12 34 100 99 48 87 94 100 100 90 99 100 100 100 97 24
5 5 82 25 90 100 85 100 88 5 51 94 41 100 7 5 5 5 32 52 45 63 60 52 53 35 21 32 17 11 5 5 32 14 5 32 32 83 71 75 69 100 100 100 100 100 100 100 100
22 10 9 99 100 100 100 18 100 100 33 90 100 6 5 5 5 16 52 41 54 65 67 63 66 79 86 47 57 20 27 30 24 44 59 55 46 26 37 100 100 100 100 100 100 100 100 100 100
68 92 100 95 100 15 89 6 100 29 99 69 82 5 11 5 18 33 29 20 63 48 44 36 31 39 69 73 93 85 98 86 78 79 68 96 99 95 78 58 93 87 100 100 100 100 100 100 100
87 99 86 100 99 89 20 10 100 99 100 96 11 5 5 9 62 40 58 64 40 20 14 4 17 34 81 94 100 100 100 100 93 93 100 100 100 100 100 100 95 89 99 100 100 100 100 100 100
90 100 100 100 100 93 92 99 100 100 99 11 25 14 4 65 75 84 55 37 12 4 21 41 33 45 84 100 100 100 100 100 100 100 100 100 100 100 100 100 100 96 99 100 100 100 100 100 100
100 100 100 100 100 100 100 100 100 100 86 31 98 4 16 89 97 77 43 9 1 1 54 93 76 68 100 100 100 100 100 100 100 100 100 100 100 100 100 100 100 100 100 100 100 100 100 100 100
100 100 100 100 100 100 100 100 100 100 100 23 5 5 70 100 99 47 47 4 0 10 45 96 100 100 100 100 100 100 100 100 100 100 100 100 100 100 100 100 100 100 100 100 100 100 100 100 100
100 100 100 100 88 100 100 100 100 100 98 8 3 5 40 100 84 75 59 4 5 18 66 98 100 100 100 100 100 100 100 100 97 100 100 100 100 100 100 100 100 100 100 100 100 100 100 100 100
100 100 100 100 100 49 60 41 83 8 42 18 2 5 26 99 100 86 46 5 5 13 47 96 100 100 100 100 100 100 100 100 100 100 100 100 100 100 100 100 100 100 100 100 100 100 100 100 100

GFSSGP_prec_cloud_135.txt.gz
Cloud_Cover
0 0 0 5 3 1 0 64 5 100 48 0 0 0 5 0 0 4 23 3 10 5 0 0 0 0 0 0 5 7 9 5 0 0 0 0 0 0 0 0 0 0 0 0 0 0 0 0 0
5 4 1 5 5 0 0 96 0 75 100 9 0 0 3 9 5 0 0 2 4 3 0 0 0 0 0 1 94 100 60 5 0 0 0 0 0 0 0 0 0 0 0 0 2 4 4 0 0
6 1 5 1 0 2 4 5 5 0 4 15 3 0 65 31 4 22 8 23 0 0 0 1 2 2 0 0 59 96 33 5 5 3 4 0 0 0 0 0 0 0 0 5 5 5 5 2 0
45 1 1 5 2 5 5 5 0 0 0 0 4 0 2 5 21 99 91 2 5 4 0 0 0 0 0 0 5 5 5 3 0 0 5 0 0 0 0 0 0 0 0 2 5 5 5 5 2
7 4 5 1 5 5 15 5 5 16 5 0 0 4 13 26 100 25 4 5 5 3 1 0 0 0 0 0 0 0 0 0 0 0 0 0 0 0 0 0 0 0 0 0 1 4 11 6 5
5 5 5 5 4 3 12 42 58 5 5 0 0 5 70 100 4 0 3 5 1 4 5 0 0 0 0 0 0 0 3 2 0 0 0 0 0 0 0 0 0 0 0 0 0 1 3 5 1
8 12 5 5 5 41 99 32 5 5 5 2 1 5 55 1 0 0 0 4 5 6 4 1 0 0 0 0 1 0 0 0 0 0 0 0 0 0 0 0 0 0 0 0 0 0 0 0 1
1 98 98 22 52 34 74 38 100 100 100 91 5 5 44 3 5 0 5 71 5 5 5 1 0 0 0 5 5 4 3 0 0 2 0 0 0 0 0 0 2 0 0 0 0 0 0 0 0
3 5 5 34 33 100 100 16 100 95 100 92 70 34 11 91 64 68 6 6 5 5 5 4 0 0 0 5 20 47 5 36 49 76 100 98 1 1 2 3 9 52 23 3 2 4 5 3 5
6 5 5 4 77 100 100 100 100 100 100 100 82 5 5 100 100 100 100 36 53 79 4 3 0 0 0 28 65 94 100 100 100 100 77 100 100 98 100 100 95 8 3 5 4 5 5 41 46
5 5 5 27 62 29 98 20 12 6 8 5 1 5 6 98 100 100 100 100 100 100 8 5 4 5 4 39 60 100 100 100 99 86 28 79 100 100 100 100 100 100 79 85 96 93 73 45 78
65 5 5 57 4 5 66 43 5 5 5 5 1 0 5 100 100 100 100 100 100 100 73 4 4 5 5 0 0 4 92 100 100 63 30 94 73 100 100 100 100 100 100 99 100 100 100 100 100
35 7 5 4 13 6 4 5 5 4 5 4 36 0 7 100 100 100 100 100 88 52 5 5 3 2 4 2 3 3 20 100 100 91 87 26 28 100 100 100 100 100 100 100 100 100 100 100 100
5 5 4 6 7 5 5 22 5 1 5 18 3 3 14 100 100 80 73 79 5 5 5 5 11 39 6 4 4 5 5 90 100 100 100 94 24 50 70 100 100 100 100 100 100 100 100 100 100
6 5 5 5 5 13 68 20 5 4 5 6 0 4 5 100 100 1 5 62 98 42 21 66 5 5 5 5 5 5 5 5 19 93 100 100 100 69 98 79 100 100 56 5 51 100 100 49 57
55 56 5 100 3 5 5 23 5 5 6 88 0 2 5 100 100 45 100 57 1 4 4 1 5 5 7 5 5 5 5 5 5 7 77 91 68 84 93 96 100 100 76 7 5 5 5 8 42
100 84 84 55 4 5 5 4 5 5 8 98 2 22 69 100 100 100 38 5 5 2 3 1 0 4 4 3 5 4 5 4 5 2 4 5 12 5 42 59 100 100 100 78 15 16 5 2 1
99 18 6 5 22 5 5 59 21 6 5 15 36 100 100 100 80 16 5 22 17 9 5 0 0 0 0 1 1 0 0 0 0 0 0 0 0 0 13 70 16 93 94 81 52 81 5 5 2
100 5 44 100 100 15 100 98 100 94 5 5 6 100 100 100 100 99 100 40 1 4 4 0 5 5 5 5 5 21 9 5 5 4 0 0 0 0 0 31 98 24 82 96 8 36 28 33 5
5 44 100 100 100 100 100 84 100 100 89 78 47 42 81 47 94 97 46 5 5 5 1 0 5 5 6 40 41 20 5 5 5 5 4 0 0 0 0 0 18 46 100 98 94 100 100 82 64
76 83 100 100 100 100 100 100 89 100 100 100 8 5 4 2 5 53 27 11 5 2 5 18 5 5 8 74 100 94 88 54 12 4 2 0 0 0 0 0 2 74 100 99 100 100 100 100 100
33 100 100 32 71 100 93 8 100 100 100 13 4 5 65 100 9 3 5 5 5 32 59 80 30 7 42 100 100 100 100 19 0 0 0 0 0 0 4 3 17 100 100 100 100 100 100 100 100
85 91 97 71 91 99 68 38 100 100 100 100 79 50 100 100 35 5 5 10 100 100 83 82 100 100 100 100 100 46 5 2 0 0 0 31 64 91 21 38 87 100 100 100 100 100 100 100 100
100 100 98 98 100 96 100 100 96 33 78 54 93 98 100 38 98 95 100 100 100 100 100 100 100 100 100 82 15 5 1 7 5 54 100 100 100 100 100 100 100 100 100 100 100 100 100 100 100
100 100 100 100 100 100 100 80 42 30 22 13 61 9 5 29 38 98 100 100 100 100 96 90 100 72 58 6 6 42 52 25 25 98 100 100 100 100 100 100 100 100 100 100 100 100 100 100 100
100 100 100 100 100 100 100 8 42 52 48 55 5 34 87 24 17 87 100 100 100 86 85 26 11 5 7 54 80 89 95 100 99 98 100 100 100 100 100 100 100 100 100 100 100 100 100 100 100
100 83 100 100 100 73 30 100 100 100 89 13 83 98 99 21 8 71 98 60 83 5 5 5 5 4 81 100 100 100 100 96 100 100 100 100 99 82 57 96 96 100 100 100 99 100 100 100 100
98 100 100 100 100 100 100 100 100 100 100 97 100 83 58 87 89 83 90 85 13 5 5 5 5 17 91 100 100 100 100 100 100 100 100 85 94 97 95 100 95 85 98 100 100 100 100 100 100
100 100 100 100 100 100 100 100 100 100 100 100 98 15 19 80 56 70 81 8 5 5 5 5 13 99 100 100 100 99 100 97 31 56 56 34 26 50 27 54 49 52 64 98 100 100 100 100 100
84 100 100 100 100 100 100 100 100 100 100 100 88 96 100 100 100 58 5 5 5 34 5 5 62 99 41 70 100 63 7 6 5 5 5 5 5 17 5 69 72 5 100 100 100 100 100 100 100

GFSSGP_prec_cloud_138.txt.gz
Cloud_Cover
44 17 97 5 2 0 0 0 0 0 0 4 5 2 0 0 0 0 0 0 1 25 9 4 5 1 0 0 0 0 0 4 10 5 2 2 0 0 0 0 0 0 0 0 0 0 0 0 0
96 84 100 96 100 50 0 0 0 0 0 5 1 0 0 0 0 0 0 0 4 1 0 0 1 0 0 0 0 0 0 5 5 5 4 0 0 0 0 0 0 0 0 0 0 0 3 5 4
96 93 100 100 100 33 5 5 5 1 0 4 72 17 0 0 0 0 0 1 1 0 1 2 0 0 0 0 0 0 0 3 2 0 0 0 0 0 0 0 0 0 0 0 0 0 0 5 12
100 100 81 10 47 5 5 5 5 7 5 0 3 27 5 5 0 0 0 0 5 5 5 5 0 0 0 0 0 0 0 2 1 0 0 0 0 0 0 0 0 0 0 0 0 0 0 3 43
100 100 36 41 12 14 3 29 5 5 5 4 6 5 4 23 5 2 2 12 99 71 2 4 7 0 0 1 0 0 0 0 0 0 0 0 0 0 0 0 0 0 0 0 0 0 0 0 4
100 52 33 3 2 2 61 69 2 5 30 69 74 2 4 5 41 19 34 77 100 5 0 11 9 7 34 13 0 1 0 0 0 0 0 0 0 0 0 0 0 0 0 0 0 0 0 0 0
14 29 5 0 4 8 21 100 18 60 4 5 38 100 88 5 10 58 100 64 100 14 3 3 5 7 13 36 51 11 4 0 0 0 1 0 0 0 7 5 0 0 0 4 0 0 0 0 0
5 7 4 21 36 5 5 5 6 6 22 9 76 100 100 90 100 100 30 8 45 97 5 5 2 3 5 5 40 100 100 95 19 40 10 5 43 100 99 13 100 32 0 9 80 46 5 2 3
5 5 5 5 5 1 5 4 17 5 5 5 14 33 19 24 49 8 14 100 100 100 97 92 100 100 100 5 21 73 94 100 100 100 100 100 100 100 97 100 100 100 100 100 100 51 22 100 100
8 5 5 5 1 0 2 5 5 5 16 12 28 5 5 0 2 5 5 19 100 100 100 100 100 100 96 5 5 8 91 62 81 100 100 100 100 100 100 98 81 100 100 100 100 100 99 96 100
100 66 5 3 5 5 2 5 5 0 6 92 5 5 5 5 0 2 4 5 100 100 100 100 100 100 100 98 28 5 57 96 99 82 100 100 100 100 100 100 100 95 80 98 94 100 100 100 100
100 21 28 13 8 88 1 4 5 5 76 76 58 22 5 2 6 5 5 5 100 100 100 100 100 100 94 16 5 5 16 95 100 98 91 67 97 75 90 100 100 100 100 100 100 100 100 100 99
100 100 100 100 96 40 3 3 5 15 5 5 7 29 5 20 94 52 2 5 100 100 100 100 93 5 5 5 5 5 5 6 91 100 63 99 100 45 57 90 51 34 86 100 100 100 96 100 100
99 100 100 100 100 99 30 33 5 2 5 5 5 5 5 5 100 100 41 95 100 87 67 16 19 34 5 4 2 1 3 5 5 12 84 100 88 51 42 22 36 78 37 66 100 100 100 51 32
80 100 100 100 100 100 100 5 93 3 3 5 5 5 28 5 45 41 5 84 100 72 86 100 100 93 8 5 0 0 4 5 5 5 5 8 55 99 100 100 59 15 6 72 18 58 84 95 80
100 100 100 100 85 5 5 62 100 5 0 5 63 89 37 34 100 44 5 73 100 100 100 100 97 49 34 10 4 0 0 1 4 0 5 5 5 0 5 42 74 83 0 5 17 53 5 5 4
100 100 100 100 98 5 13 58 100 61 3 5 20 62 23 100 99 5 99 100 100 100 100 45 6 14 69 5 5 1 1 4 2 5 4 5 5 0 0 0 3 5 2 0 32 38 4 5 21
99 56 30 94 100 99 11 4 5 100 36 21 6 61 51 100 100 92 100 57 78 100 100 97 18 5 5 5 5 0 4 5 5 33 6 5 5 5 5 5 0 0 0 13 18 2 0 0 0
78 13 57 100 100 100 98 7 5 84 100 100 4 30 82 100 83 80 6 44 100 23 1 5 5 5 5 5 3 5 5 10 5 5 5 47 79 31 18 4 0 0 0 0 0 4 0 0 1
32 38 100 100 100 87 33 5 5 100 100 100 89 100 100 100 100 100 100 14 6 5 5 5 10 6 5 5 5 5 5 5 6 18 56 100 100 91 5 5 5 2 7 44 54 17 43 16 10
100 93 100 100 100 73 78 79 90 15 81 100 100 100 97 100 100 100 84 79 17 5 5 5 4 5 5 5 5 5 5 6 26 87 100 100 97 73 6 3 4 42 99 100 100 100 92 97 97
100 100 100 100 100 100 100 8 78 82 85 21 100 51 6 98 100 100 89 12 5 5 5 5 5 5 5 5 5 5 5 92 100 89 99 74 15 14 11 6 9 83 100 100 100 100 100 100 100
100 100 74 88 96 16 10 8 100 33 21 98 58 83 100 100 100 98 45 100 79 92 97 12 5 5 5 5 11 5 65 100 95 62 5 8 51 36 36 79 100 100 100 100 100 100 100 100 100
100 100 100 100 90 59 37 96 13 7 99 15 100 100 100 100 98 100 100 100 100 58 24 5 5 5 5 5 5 5 10 28 25 5 18 6 91 89 84 100 100 100 100 100 100 100 100 100 100
100 100 100 100 22 8 73 84 44 77 99 100 100 100 100 94 8 67 93 95 100 98 73 5 5 5 5 5 5 5 5 8 5 23 18 15 64 39 76 95 93 100 100 100 100 100 100 100 100
100 100 99 85 36 94 99 5 73 100 100 99 100 100 100 80 34 62 81 99 100 31 52 64 5 5 5 5 5 5 5 5 6 79 32 23 37 28 7 8 51 99 100 100 100 100 100 100 100
98 88 87 100 100 20 5 5 5 56 87 98 76 70 40 6 22 73 100 100 100 100 100 94 6 5 5 28 32 39 59 59 82 98 44 5 8 68 8 18 41 91 100 100 100 100 100 100 100
100 92 100 100 81 65 5 14 5 90 100 100 85 85 96 100 80 75 100 100 100 91 39 44 5 5 37 93 97 100 100 29 90 47 5 5 6 7 5 5 13 68 66 85 83 60 83 100 78
100 100 99 89 89 32 38 18 82 100 100 100 100 100 100 100 100 100 94 100 100 9 5 2 5 10 100 100 96 56 16 5 5 5 5 9 100 5 5 5 5 38 97 93 8 29 24 86 94
100 100 100 100 26 100 100 20 88 44 100 100 97 99 100 100 100 99 7 5 74 100 33 5 8 54 98 93 86 27 6 5 5 5 5 34 5 5 4 3 5 33 56 44 50 6 5 82 97

GFSSGP_prec_cloud_144.txt.gz
Cloud_Cover
29 49 0 0 48 100 100 100 100 20 0 2 0 0 0 0 0 1 5 5 2 25 7 0 83 100 6 5 4 0 0 0 0 0 0 0 0 0 0 0 0 0 0 0 0 0 0 0 0
29 3 0 0 3 100 100 83 5 5 4 4 0 0 0 20 2 5 5 5 2 2 8 29 20 24 10 3 2 1 0 0 0 0 0 0 0 0 0 0 0 0 0 0 0 0 0 0 0
5 5 5 0 4 68 77 43 33 5 0 0 0 0 0 0 4 3 3 1 8 62 40 44 73 97 75 3 0 0 0 0 0 0 0 0 0 0 0 0 0 0 0 0 0 0 0 0 0
51 5 0 0 5 5 31 13 0 0 0 0 0 1 4 79 64 52 42 59 91 85 8 67 94 47 16 70 5 5 0 0 0 0 0 0 0 0 0 0 0 0 0 0 0 11 0 0 0
18 3 0 0 5 5 2 3 0 0 0 4 5 5 85 100 71 18 10 15 43 12 0 1 35 70 100 91 12 3 2 0 0 0 0 0 0 0 0 0 0 0 0 0 0 89 86 0 0
100 92 5 0 5 9 5 5 3 4 5 5 18 18 85 100 79 35 4 2 4 0 0 0 0 51 100 100 70 12 1 0 1 11 7 4 24 1 0 0 0 1 0 0 0 0 32 100 79
42 5 4 0 3 5 5 2 5 5 7 55 35 12 45 100 98 90 5 5 5 1 0 0 0 0 71 100 100 100 90 52 40 76 100 53 58 32 10 0 0 0 0 82 51 3 5 10 100
5 15 97 5 1 3 0 2 5 6 87 98 90 5 35 100 100 99 1 4 5 0 0 0 0 0 2 6 100 97 100 100 100 100 100 88 20 68 97 86 58 36 9 5 5 5 5 6 20
100 99 75 10 11 21 20 33 100 90 91 62 69 68 7 100 100 73 5 5 5 5 2 0 0 0 1 13 78 100 100 100 100 100 100 100 88 32 2 18 28 6 44 44 32 21 6 15 90
100 100 100 100 100 100 69 81 27 68 47 64 26 8 18 62 26 6 15 8 5 5 5 0 1 5 5 5 26 86 100 100 100 100 100 100 100 100 100 91 82 68 46 100 100 100 100 100 81
100 100 100 100 68 16 96 5 5 4 7 39 88 10 18 5 5 5 31 5 5 1 5 0 0 11 98 35 28 76 100 100 100 100 100 100 100 100 99 74 98 67 89 67 12 64 100 38 47
100 100 100 100 100 75 96 42 5 5 8 56 99 88 12 5 5 6 40 5 5 5 5 5 5 5 67 100 100 100 100 100 100 100 100 100 100 100 100 100 100 100 74 55 91 85 27 6 5
99 82 80 54 77 36 5 5 0 5 5 5 20 54 18 45 5 8 39 5 13 6 11 5 29 26 64 94 100 100 100 100 100 54 53 100 100 100 100 100 100 100 100 88 62 62 99 74 6
76 66 89 81 14 39 66 9 5 5 5 4 5 5 62 94 5 34 11 5 5 28 5 22 38 90 100 88 94 38 82 100 100 100 42 58 22 22 100 100 21 86 89 7 89 99 100 99 96
98 14 34 38 99 78 6 4 5 5 5 5 41 42 100 100 9 67 81 5 5 51 5 5 50 100 89 100 94 86 100 95 100 77 68 28 5 4 4 5 5 5 94 14 12 9 100 5 8
89 8 80 100 92 66 17 3 5 4 5 5 20 43 100 57 26 92 100 8 5 52 5 5 19 52 99 100 100 100 96 92 25 5 40 5 5 5 3 5 0 0 5 5 5 4 5 4 6
99 8 42 86 97 82 4 3 5 4 5 5 5 82 100 100 87 92 100 8 29 5 5 5 9 5 8 76 82 37 5 5 6 45 6 5 5 5 5 1 5 5 4 5 5 5 1 0 1
6 53 38 94 88 25 5 5 4 2 0 1 2 48 63 100 100 100 100 65 24 4 28 7 3 5 72 100 55 5 5 54 98 58 52 10 5 5 5 5 6 5 5 5 5 5 4 5 5
46 52 100 100 100 100 59 5 5 3 0 1 5 29 100 100 100 100 100 88 74 5 79 25 6 7 88 92 100 81 78 94 48 5 5 5 38 7 55 38 5 5 5 5 5 0 0 0 0
68 71 96 100 100 66 17 0 5 5 6 5 14 48 100 100 100 100 100 99 100 100 74 76 36 41 95 91 99 98 100 53 72 92 90 87 91 85 9 5 5 5 5 5 5 2 14 43 10
67 88 100 100 64 5 5 5 5 57 27 86 100 100 100 100 100 100 100 78 86 98 100 45 51 5 28 71 60 71 100 100 100 100 100 100 100 44 5 5 5 2 3 1 46 87 96 82 100
100 100 100 100 67 6 61 4 21 99 100 100 100 100 100 100 100 100 100 96 9 45 51 56 96 97 100 100 100 100 100 100 100 73 56 96 85 11 13 5 5 5 5 5 22 83 92 100 100
73 93 24 60 55 5 45 8 98 100 100 100 100 100 100 100 100 100 100 100 100 83 7 14 80 100 100 100 100 100 100 98 100 72 51 99 98 22 5 6 31 5 5 5 12 23 82 99 100
82 99 100 92 5 3 94 67 95 100 100 100 100 100 100 100 100 100 100 100 100 100 74 96 100 100 100 100 100 98 72 92 80 23 23 88 39 47 80 100 64 5 5 5 5 11 85 100 100
30 5 32 49 22 5 88 44 100 100 100 100 100 100 100 100 100 100 100 100 100 100 98 91 92 91 99 100 66 6 36 50 27 10 5 64 100 100 100 62 6 24 31 5 29 97 87 100 100
61 100 100 100 87 70 98 23 100 100 100 100 100 100 100 100 100 100 100 100 100 100 100 100 100 98 81 26 26 36 6 55 100 100 100 100 100 88 14 5 6 99 76 23 37 100 100 100 100
100 100 91 100 100 100 45 4 6 100 100 100 100 100 100 100 100 100 100 100 100 100 100 100 84 59 43 5 70 87 97 72 100 100 100 95 5 5 5 31 5 9 68 6 70 100 100 83 20
100 100 100 100 100 100 100 73 0 55 81 38 42 62 69 96 92 100 100 96 96 85 80 69 81 58 58 16 54 100 62 55 100 100 100 82 20 98 16 5 29 65 27 19 28 92 68 5 6
100 100 100 100 100 100 95 70 100 71 40 65 82 11 5 57 60 100 100 100 100 100 100 100 100 100 100 96 24 100 92 88 55 77 100 45 68 7 5 52 96 94 45 5 5 5 5 5 5
100 100 100 100 100 100 100 80 100 38 96 82 85 89 81 78 100 100 100 100 100 100 100 100 100 100 100 100 86 100 68 24 21 56 95 5 5 5 52 100 70 5 5 15 5 5 5 5 89